Regional Weather Roundup
Issued by NWS

Home | Current Version | Previous Version | Graphics & Text | Print | Product List | Glossary On
Versions: 1 2 3 4 5 6 7 8 9 10 11 12 13 14 15 16 17 18 19 20 21 22 23 24 25 26 27 28 29 30 31 32 33 34 35 36 37 38 39 40 41 42 43 44 45 46 47 48 49 50
000
ASUS43 KDMX 260106
RWRIA

WEATHER ROUNDUP FOR IOWA
NATIONAL WEATHER SERVICE DES MOINES IA
800 PM CDT SAT MAR 25 2017

NOTE: "FAIR" INDICATES FEW OR NO CLOUDS BELOW 12,000 FEET WITH NO
SIGNIFICANT WEATHER AND/OR OBSTRUCTIONS TO VISIBILITY.

* - THESE STATIONS ARE NOT NWS STATIONS...THUS NOT UNDER NWS
QUALITY CONTROL.  THEY ALSO DO NOT REPORT WEATHER SUCH
AS PRECIPITATION OR FOG.

IAZ001>003-012>014-020>022-031>034-043>046-260200-
   NORTHWEST IOWA

CITY           SKY/WX    TMP DP  RH WIND       PRES   REMARKS
CARROLL *      CLOUDY    39  39 100 NE12      29.93S FOG     WCI  32
CHEROKEE *     CLOUDY    38  38  98 NE8       29.97S FOG     WCI  32
LE MARS *      CLOUDY    39  37  93 NE8       29.99R WCI  34
ORANGE CITY *  CLOUDY    37  37 100 E7        29.98R FOG     WCI  32
SHELDON *      CLOUDY    37  37 100 E10       29.97S FOG     WCI  30
SIOUX CITY     CLOUDY    40  39  97 NE9       29.98R WCI  34
SPENCER        CLOUDY    38  37  97 NE13      29.98S FOG     WCI  30
STORM LAKE *   FOG       37  37 100 NE16      29.95S VSB 1   WCI  28
$$

IAZ055>058-069>071-079>083-090>094-260200-
   SOUTHWEST IOWA

CITY           SKY/WX    TMP DP  RH WIND       PRES   REMARKS
ATLANTIC *     CLOUDY    41  41 100 NE7       29.92R FOG
AUDUBON *      CLOUDY    39  37  93 NE8       29.93R FOG     WCI  34
CLARINDA *     CLOUDY    43  43 100 NE9       29.94R FOG
COUNCIL BLFS * CLOUDY    41  41 100 NE9       29.92F FOG
CRESTON *      CLOUDY    41  41 100 NE8       29.91R FOG
HARLAN  *      CLOUDY    39  39 100 NE10      29.96S FOG     WCI  32
LAMONI         CLOUDY    43  42  97 N6        29.88R
RED OAK *      CLOUDY    41  41 100 N7        29.92R FOG
SHENANDOAH *   CLOUDY    43  41  93 NE7       29.92R
$$

IAZ047>049-059>061-072>074-084-260200-
   CENTRAL IOWA

CITY           SKY/WX    TMP DP  RH WIND       PRES   REMARKS
AMES           CLOUDY    41  41 100 NE13      29.91S
ANKENY *       CLOUDY    43  41  93 NE8       29.92R
BOONE *        CLOUDY    41  41 100 NE14      29.90S FOG
CHARITON *     CLOUDY    43  43 100 N6        29.88R FOG
DES MOINES     CLOUDY    44  41  89 NE8       29.90R
GRINNELL*      FOG       42  41  97 NE12      29.90R VSB 1
MARSHALLTOWN   CLOUDY    41  41 100 NE13      29.90F FOG
NEWTON *       FOG       43  41  93 NE14      29.89R VSB 1
PELLA *        CLOUDY    44  43  98 NE5       29.90R FOG
PERRY *        CLOUDY    41  40  95 NE7       29.92R
$$

IAZ004>006-015-016-023>025-035-036-260200-
   NORTH CENTRAL IOWA

CITY           SKY/WX    TMP DP  RH WIND       PRES   REMARKS
ALGONA *       CLOUDY    39  39 100 NE10      29.97S WCI  32
CLARION *      CLOUDY    39  39 100 NE15      29.95S WCI  31
ESTHERVILLE    CLOUDY    36  36 100 NE12      29.98F FOG     WCI  28
FORT DODGE *   CLOUDY    39  36  87 NE12      29.96R WCI  32
MASON CITY     CLOUDY    38  36  92 E16G22    29.98S WCI  29
FOREST CITY *  CLOUDY    37  36  93 E10       29.97F FOG     WCI  30
WEBSTER CITY * CLOUDY    39  39 100 NE12G18   29.92S WCI  32
IOWA FALLS *   CLOUDY    40  38  95 NE10G17   29.94S WCI  33
$$

IAZ007>011-017>019-026>030-037>042-050>054-066-260200-
   NORTHEAST IOWA

CITY           SKY/WX    TMP DP  RH WIND       PRES   REMARKS
CEDAR RAPIDS   FOG       43  43 100 NE21      29.87F VSB 1/2
CHARLES CITY * CLOUDY    37  37 100 E15G23    29.96F FOG     WCI  28
CLINTON *      LGT RAIN  44  43  96 NE20      29.92R
DECORAH *      CLOUDY    37  37 100 E13G20    29.98S FOG     WCI  29
DUBUQUE        FOG       40  40 100 NE15      29.94S VSB 1/2 WCI  32
MONTICELLO *   CLOUDY    41  41 100 NE9G18    29.92F FOG
OELWEIN *      CLOUDY    39  39 100 NE18G24   29.93S FOG     WCI  30
WATERLOO       CLOUDY    39  38  96 NE14      29.93F FOG     WCI  31
$$

IAZ064-065-067-068-078-260200-
   EAST CENTRAL IOWA

CITY           SKY/WX    TMP DP  RH WIND       PRES   REMARKS
DAVENPORT      CLOUDY    47  45  93 E16       29.90S
IOWA CITY      CLOUDY    47  44  90 NE14      29.90R
MUSCATINE *    CLOUDY    52  50  93 NE12      29.87S
QUAD CITIES    CLOUDY    50  47  89 NE14      29.89R
$$

IAZ062-063-075>077-085>089-095>099-260200-
   SOUTHEAST IOWA

CITY           SKY/WX    TMP DP  RH WIND       PRES   REMARKS
BURLINGTON     CLOUDY    58  57  97 E6        29.83S
FAIRFIELD *    FOG       50  50 100 NE12      29.85S VSB 1/4
FORT MADISON * CLOUDY    57  57 100 CALM      29.84R FOG
KEOKUK *       CLOUDY    57  55  94 NE3       29.82S
OSKALOOSA *    LGT RAIN  45  45  99 NE7       29.87S VSB 1/2
OTTUMWA        FOG       47  47 100 NE7       29.86S VSB 1/4
WASHINGTON *   CLOUDY    48  48 100 NE14      29.87S FOG
$$

ABBREVIATIONS USED IN REMARKS
   TC - TEMPERATURES IN CELSIUS
  WCI - WIND CHILL INDEX
   HX - HEAT INDEX
  VSB - VISIBILITY
$$




USA.gov is the U.S. government's official web portal to all federal, state and local government web resources and services.